Change the Weather History Date:

Sunday, November 10, 2013

  Actual Average Record
Temperature  
Mean Temperature 58 °F -  
Max Temperature 70 °F 63 °F 77 °F (1998)
Min Temperature 46 °F 43 °F 33 °F (2001)
Degree Days  
Heating Degree Days 7    
Growing Degree Days 8 (Base 50)    
Moisture  
Dew Point 42 °F    
Average Humidity 62    
Maximum Humidity 86    
Minimum Humidity 31    
Precipitation  
Precipitation 0.00 in - - ()
Sea Level Pressure  
Sea Level Pressure 30.15 in    
Wind  
Wind Speed 7 mph (WSW)    
Max Wind Speed 14 mph    
Max Gust Speed -    
Visibility 10 miles    
Events      
Averages and records for this station are not official NWS values.
T = Trace of Precipitation, MM = Missing Value Source: NWS Daily Summary

Daily Weather History Graph

Daily Weather History Graph

Search for Another Location

Airport or City:

Trip Planner

Search our weather history database for the weather conditions in past years. The results will help you decide how hot, cold, wet, or windy it might be!

Date:

Astronomy

Nov. 10, 2013 Rise Set
Actual Time 6:37 AM EST 5:05 PM EST
Civil Twilight 6:10 AM EST 5:32 PM EST
Nautical Twilight 5:40 AM EST 6:02 PM EST
Astronomical Twilight 5:10 AM EST 6:32 PM EST
Moon 12:54 PM EST (11/10) No Moon Set
Length of Visible Light 11h 21m
Length of Day
10h 28m
First Quarter, 55% of the Moon is Illuminated
Nov 10
First Quarter
Nov 17
Full
Nov 25
Last Quarter
Dec 2
New
Dec 9
First Quarter

Hourly Weather History & Observations

Time (EST) Temp. Dew Point Humidity Pressure Visibility Wind Dir Wind Speed Gust Speed Precip Events Conditions
12:54 AM 52.0 °F 48.0 °F 86% 30.19 in 10.0 mi WSW 5.8 mph - N/A   Clear
1:54 AM 50.0 °F 46.0 °F 86% 30.19 in 10.0 mi West 4.6 mph - N/A   Scattered Clouds
2:54 AM 48.9 °F 43.0 °F 80% 30.19 in 10.0 mi West 6.9 mph - N/A   Partly Cloudy
3:54 AM 48.9 °F 44.1 °F 83% 30.18 in 10.0 mi SW 6.9 mph - N/A   Clear
4:54 AM 48.0 °F 42.1 °F 80% 30.18 in 10.0 mi Calm Calm - N/A   Clear
5:54 AM 46.9 °F 43.0 °F 86% 30.19 in 10.0 mi WSW 5.8 mph - N/A   Clear
6:54 AM 46.9 °F 42.1 °F 83% 30.21 in 10.0 mi West 6.9 mph - N/A   Scattered Clouds
7:54 AM 51.1 °F 43.0 °F 74% 30.21 in 10.0 mi WSW 6.9 mph - N/A   Partly Cloudy
8:54 AM 57.0 °F 37.9 °F 49% 30.22 in 10.0 mi West 10.4 mph - N/A   Scattered Clouds
9:54 AM 60.1 °F 37.9 °F 44% 30.20 in 10.0 mi West 12.7 mph - N/A   Partly Cloudy
10:54 AM 64.0 °F 37.0 °F 37% 30.18 in 10.0 mi West 9.2 mph - N/A   Partly Cloudy
11:54 AM 66.0 °F 37.9 °F 36% 30.14 in 10.0 mi WSW 9.2 mph - N/A   Partly Cloudy
12:54 PM 68.0 °F 39.9 °F 36% 30.11 in 10.0 mi WSW 11.5 mph - N/A   Partly Cloudy
1:54 PM 70.0 °F 37.9 °F 31% 30.09 in 10.0 mi WSW 13.8 mph - N/A   Partly Cloudy
2:54 PM 70.0 °F 37.9 °F 31% 30.07 in 10.0 mi WSW 13.8 mph - N/A   Partly Cloudy
3:54 PM 69.1 °F 39.9 °F 35% 30.07 in 10.0 mi SW 9.2 mph - N/A   Partly Cloudy
4:54 PM 62.1 °F 43.0 °F 50% 30.08 in 10.0 mi SW 5.8 mph - N/A   Partly Cloudy
5:54 PM 59.0 °F 44.1 °F 58% 30.11 in 7.0 mi SW 5.8 mph - N/A   Partly Cloudy
6:54 PM 54.0 °F 46.0 °F 75% 30.13 in 10.0 mi SW 4.6 mph - N/A   Clear
7:54 PM 54.0 °F 44.1 °F 69% 30.14 in 10.0 mi SW 5.8 mph - N/A   Clear
8:54 PM 52.0 °F 43.0 °F 71% 30.14 in 10.0 mi SW 5.8 mph - N/A   Partly Cloudy
9:54 PM 50.0 °F 43.0 °F 77% 30.15 in 10.0 mi Calm Calm - N/A   Partly Cloudy
10:54 PM 52.0 °F 41.0 °F 66% 30.16 in 10.0 mi West 6.9 mph - N/A   Clear
11:54 PM 52.0 °F 41.0 °F 66% 30.18 in 10.0 mi NW 6.9 mph - N/A   Clear